Overview Statistics Trail Chart Weather Telemetry Raw packets
 

This is the latest recevied weather packets stored in our database for station/object SQ9SMC-13. If no packets are shown the sender has not sent any weather packets the latest 10 day(s).

<< 62 63 64 65 66 67 68 >>
Time Temp. Humidity Pressure Rain* Wind** Luminosity Snow
1777274404 10.56° C 33% 1025.4 hPa 0 mm - 375 W/m² -
1777274104 10.56° C 32% 1025.3 hPa 0 mm - 363 W/m² -
1777273803 10.56° C 34% 1025.4 hPa 0 mm - 344 W/m² -
1777273502 10° C 35% 1025.4 hPa 0 mm - 337 W/m² -
1777273203 10° C 36% 1025.3 hPa 0 mm - 335 W/m² -
1777272903 9.44° C 35% 1025.2 hPa 0 mm - 318 W/m² -
1777272604 9.44° C 35% 1025.3 hPa 0 mm - 304 W/m² -
1777272303 9.44° C 37% 1025.4 hPa 0 mm - 289 W/m² -
1777272003 8.89° C 39% 1025.4 hPa 0 mm - 279 W/m² -
1777271703 8.89° C 40% 1025.3 hPa 0 mm - 264 W/m² -
1777271404 8.89° C 43% 1025.4 hPa 0 mm - 252 W/m² -
1777271105 8.33° C 42% 1025.3 hPa 0 mm - 240 W/m² -
1777270805 7.78° C 45% 1025.5 hPa 0 mm - 231 W/m² -
1777270503 7.22° C 46% 1025.3 hPa 0 mm - 222 W/m² -
1777270202 7.22° C 48% 1025.4 hPa 0 mm - 211 W/m² -
1777269905 6.67° C 49% 1025.6 hPa 0 mm - 197 W/m² -
1777269603 6.11° C 50% 1025.2 hPa 0 mm - 184 W/m² -
1777269303 5.56° C 51% 1025.4 hPa 0 mm - 173 W/m² -
1777269003 5.56° C 51% 1025.2 hPa 0 mm - 161 W/m² -
1777268703 5.56° C 53% 1025.1 hPa 0 mm - 150 W/m² -
1777268403 5° C 55% 1025.3 hPa 0 mm - 140 W/m² -
1777268104 5° C 56% 1025.2 hPa 0 mm - 130 W/m² -
1777267802 4.44° C 55% 1025.2 hPa 0 mm - 121 W/m² -
1777267504 3.89° C 60% 1025.2 hPa 0 mm - 110 W/m² -
1777267203 3.89° C 60% 1025.2 hPa 0 mm - 101 W/m² -

* Rain latest hour (hover to see other rain measurements)
** Current wind speed in m/s (hover to see current wind gust speed)